TimeCDT,TemperatureF,Dew PointF,Humidity,Sea Level PressureIn,VisibilityMPH,Wind Direction,Wind SpeedMPH,Gust SpeedMPH,PrecipitationIn,Events,Conditions,WindDirDegrees,DateUTC
12:53 AM,53.1,28.9,40,30.13,10.0,SSE,8.1,-,N/A,,Clear,150,2013-03-28 05:53:00
1:53 AM,52.0,28.9,41,30.14,10.0,SSE,8.1,-,N/A,,Clear,150,2013-03-28 06:53:00
2:53 AM,50.0,28.9,44,30.13,10.0,SE,9.2,-,N/A,,Clear,140,2013-03-28 07:53:00
3:53 AM,46.9,30.0,52,30.13,10.0,SE,6.9,-,N/A,,Clear,130,2013-03-28 08:53:00
4:53 AM,48.9,30.0,48,30.12,10.0,SSE,8.1,-,N/A,,Clear,150,2013-03-28 09:53:00
5:53 AM,48.0,30.0,50,30.13,10.0,SSE,8.1,-,N/A,,Clear,150,2013-03-28 10:53:00
6:53 AM,46.0,30.0,54,30.14,10.0,SE,4.6,-,N/A,,Clear,130,2013-03-28 11:53:00
7:53 AM,48.9,32.0,52,30.16,10.0,SSE,12.7,-,N/A,,Clear,160,2013-03-28 12:53:00
8:53 AM,51.1,35.1,54,30.17,10.0,South,13.8,-,N/A,,Clear,170,2013-03-28 13:53:00
9:53 AM,55.9,39.0,53,30.18,10.0,South,12.7,-,N/A,,Partly Cloudy,180,2013-03-28 14:53:00
10:53 AM,60.1,43.0,53,30.18,10.0,SSW,13.8,20.7,N/A,,Scattered Clouds,200,2013-03-28 15:53:00
11:53 AM,63.0,46.0,54,30.17,10.0,South,12.7,-,N/A,,Partly Cloudy,180,2013-03-28 16:53:00
12:53 PM,64.9,46.9,52,30.15,10.0,SSE,13.8,-,N/A,,Scattered Clouds,160,2013-03-28 17:53:00
1:53 PM,68.0,48.9,50,30.12,10.0,South,13.8,-,N/A,,Scattered Clouds,170,2013-03-28 18:53:00
2:53 PM,70.0,48.9,47,30.09,10.0,SE,13.8,-,N/A,,Scattered Clouds,140,2013-03-28 19:53:00
3:53 PM,73.0,48.9,42,30.06,10.0,SSE,15.0,-,N/A,,Scattered Clouds,160,2013-03-28 20:53:00
4:53 PM,73.0,48.9,42,30.04,10.0,SSE,16.1,-,N/A,,Scattered Clouds,160,2013-03-28 21:53:00
5:53 PM,71.1,48.9,45,30.04,10.0,SSE,16.1,-,N/A,,Scattered Clouds,150,2013-03-28 22:53:00
6:53 PM,70.0,48.9,47,30.04,10.0,South,20.7,28.8,N/A,,Scattered Clouds,170,2013-03-28 23:53:00
7:53 PM,68.0,48.9,50,30.07,10.0,South,12.7,-,N/A,,Scattered Clouds,170,2013-03-29 00:53:00
8:53 PM,66.9,50.0,54,30.09,10.0,South,9.2,-,N/A,,Scattered Clouds,170,2013-03-29 01:53:00
9:53 PM,64.0,50.0,60,30.10,10.0,SE,6.9,-,N/A,,Mostly Cloudy,140,2013-03-29 02:53:00
10:53 PM,64.0,48.9,58,30.10,10.0,SSE,8.1,-,N/A,,Scattered Clouds,160,2013-03-29 03:53:00
11:53 PM,61.0,48.9,64,30.09,10.0,SSE,5.8,-,N/A,,Partly Cloudy,150,2013-03-29 04:53:00